Weather Roundup
Issued by NWS Chicago, IL

Home | Current Version | Previous Version | Graphics & Text | Print | Product List | Glossary On
Versions: 1 2 3 4 5 6 7 8 9 10 11 12 13 14 15 16 17 18 19 20 21 22 23 24 25 26 27 28 29 30 31 32 33 34 35 36 37 38 39 40 41 42 43 44 45 46 47 48 49 50
000
NZUS59 KLOT 241604
HRRLOT

CHICAGO AREA WEATHER ROUNDUP
NATIONAL WEATHER SERVICE CHICAGO/ROMEOVILLE IL
1100 AM CDT SAT JUN 24 2017

NOTE: "FAIR" INDICATES FEW OR NO CLOUDS BELOW 12,000 FEET WITH NO
SIGNIFICANT WEATHER AND/OR OBSTRUCTIONS TO VISIBILITY.

* THESE STATIONS ARE NOT UNDER NWS QUALITY CONTROL. THEY ALSO MAY NOT
  REPORT WEATHER SUCH AS PRECIPITATION OR FOG.

ILZ005-006-012>014-019>023-241700-
NORTHEAST ILLINOIS

CITY           SKY/WX    TMP DP  RH WIND       PRES   REMARKS
OHARE          PTSUNNY   72  53  51 W9G21     29.96R
MIDWAY         PTSUNNY   71  54  54 W15       29.96S
AURORA         PTSUNNY   68  54  60 W13       30.00R
LANSING*       PTSUNNY   69  53  55 W12       29.98R
JOLIET*        PTSUNNY   72  54  53 W10G18    30.00R
WAUKEGAN       MOSUNNY   70  55  59 VRB6      29.95R
DUPAGE AIRPORT PTSUNNY   69  55  60 W14       29.98R
WHEELING       PTSUNNY   69  56  62 NW12      29.97R
MORRIS*        MOSUNNY   71  53  53 W14       30.00R
LEWIS AIRPORT* MOSUNNY   71  52  50 W12       29.99R
NORTHERLY ISL    N/A     68  49  50 W9          N/A
$$

WIZ051-052-058>065-066-070>072-241700-
SOUTHEAST WISCONSIN

CITY           SKY/WX    TMP DP  RH WIND       PRES   REMARKS
MILWAUKEE      MOSUNNY   70  49  47 W18G24    29.93R
KENOSHA*       MOSUNNY   68  53  58 W12G22    29.96R
RACINE*        MOSUNNY   69  52  54 W14G23    29.96R
WAUKESHA       MOSUNNY   64  48  55 W14G21    29.96R
$$

INZ001>003-010>013-019-020-241700-
NORTHWEST INDIANA

CITY           SKY/WX    TMP DP  RH WIND       PRES   REMARKS
GARY*          MOSUNNY   72  52  49 W12G23    29.97R
MICHIGAN CITY* NOT AVBL
RENSSELAER*    NOT AVBL
VALPARAISO     MOSUNNY   73  56  54 W13       29.97R
$$

LMZ740>746-241700-
SOUTHERN LAKE MICHIGAN

STATION/POSITION TIME  SKY/WX   TEMP WIND        PRES    VSBY
                                AIR  DIR/SP/G
                 (UTC)          (F)  (DEG/KT/KT) (MB)    (MI)
HARRISON CRIB    1540            68  270/ 12/ 14   N/A
BURNHAM HARBOR   1600            69                N/A
CALUMET HARBOR   1530            69  250/  7/ 12 1014.1R
BURNS HARBOR     1530            66  300/  7/  9 1014.9S
MICHIGAN CITY    1540            65  260/  9/ 10   N/A
$$

ABBREVIATIONS USED IN REMARKS
   TC - TEMPERATURE IN CELSIUS
  WCI - WIND CHILL INDEX
   HX - HEAT INDEX
  VSB - VISIBILITY
$$




USA.gov is the U.S. government's official web portal to all federal, state and local government web resources and services.